Time,TemperatureF,DewpointF,PressureIn,WindDirection,WindDirectionDegrees,WindSpeedMPH,WindSpeedGustMPH,Humidity,HourlyPrecipIn,Conditions,Clouds,dailyrainin,SoftwareType,DateUTC
2013-03-20 00:02:00,9.0,0.0,-100.00,WNW,300,16.0,24.0,68,0.00,,,0.00,,2013-03-20 05:02:00,
2013-03-20 00:12:00,9.0,0.0,-100.00,WNW,300,17.0,22.0,68,0.00,,,0.00,,2013-03-20 05:12:00,
2013-03-20 00:22:00,9.0,0.0,-100.00,WNW,295,17.0,24.0,68,0.00,,,0.00,,2013-03-20 05:22:00,
2013-03-20 00:32:00,9.0,1.0,-100.00,WNW,295,17.0,24.0,69,0.00,,,0.00,,2013-03-20 05:32:00,
2013-03-20 00:42:00,8.0,1.0,-100.00,WNW,300,16.0,22.0,69,0.00,,,0.00,,2013-03-20 05:42:00,
2013-03-20 00:52:00,8.0,1.0,-100.00,WNW,300,14.0,21.0,70,0.00,,,0.00,,2013-03-20 05:52:00,
2013-03-20 01:02:00,8.0,1.0,-100.00,WNW,295,16.0,21.0,71,0.00,,,0.00,,2013-03-20 06:02:00,
2013-03-20 01:12:00,8.0,1.0,-100.00,WNW,295,17.0,21.0,71,0.00,,,0.00,,2013-03-20 06:12:00,
2013-03-20 01:22:00,8.0,1.0,-100.00,WNW,295,14.0,20.0,73,0.00,,,0.00,,2013-03-20 06:22:00,
2013-03-20 01:32:00,7.0,0.0,-100.00,WNW,300,13.0,21.0,73,0.00,,,0.00,,2013-03-20 06:32:00,
2013-03-20 01:42:00,8.0,1.0,-100.00,WNW,295,16.0,20.0,73,0.00,,,0.00,,2013-03-20 06:42:00,
2013-03-20 01:52:00,7.0,1.0,-100.00,WNW,295,17.0,23.0,73,0.00,,,0.00,,2013-03-20 06:52:00,
2013-03-20 02:02:00,7.0,0.0,-100.00,WNW,300,17.0,24.0,73,0.00,,,0.00,,2013-03-20 07:02:00,
2013-03-20 02:12:00,7.0,0.0,-100.00,WNW,290,15.0,19.0,73,0.00,,,0.00,,2013-03-20 07:12:00,
2013-03-20 02:22:00,7.0,0.0,-100.00,WNW,290,16.0,21.0,72,0.00,,,0.00,,2013-03-20 07:22:00,
2013-03-20 02:32:00,6.0,0.0,-100.00,WNW,300,14.0,21.0,73,0.00,,,0.00,,2013-03-20 07:32:00,
2013-03-20 02:42:00,6.0,0.0,-100.00,WNW,300,16.0,22.0,73,0.00,,,0.00,,2013-03-20 07:42:00,
2013-03-20 02:52:00,6.0,0.0,-100.00,WNW,300,17.0,23.0,73,0.00,,,0.00,,2013-03-20 07:52:00,
2013-03-20 03:02:00,6.0,0.0,-100.00,WNW,300,16.0,22.0,73,0.00,,,0.00,,2013-03-20 08:02:00,
2013-03-20 03:12:00,6.0,0.0,-100.00,WNW,300,14.0,22.0,73,0.00,,,0.00,,2013-03-20 08:12:00,
2013-03-20 03:22:00,6.0,0.0,-100.00,NW,305,17.0,22.0,72,0.00,,,0.00,,2013-03-20 08:22:00,
2013-03-20 03:32:00,6.0,-2.0,-100.00,WNW,300,14.0,19.0,70,0.00,,,0.00,,2013-03-20 08:32:00,
2013-03-20 03:42:00,6.0,-2.0,-100.00,WNW,300,15.0,21.0,70,0.00,,,0.00,,2013-03-20 08:42:00,
2013-03-20 03:52:00,6.0,-2.0,-100.00,NW,305,15.0,21.0,69,0.00,,,0.00,,2013-03-20 08:52:00,
2013-03-20 04:02:00,6.0,-2.0,-100.00,WNW,295,14.0,21.0,68,0.00,,,0.00,,2013-03-20 09:02:00,
2013-03-20 04:12:00,6.0,-2.0,-100.00,NW,305,14.0,18.0,68,0.00,,,0.00,,2013-03-20 09:12:00,
2013-03-20 04:22:00,5.0,-2.0,-100.00,WNW,300,14.0,19.0,68,0.00,,,0.00,,2013-03-20 09:22:00,
2013-03-20 04:32:00,5.0,-2.0,-100.00,WNW,295,12.0,19.0,69,0.00,,,0.00,,2013-03-20 09:32:00,
2013-03-20 04:43:00,5.0,-2.0,-100.00,WNW,295,13.0,17.0,69,0.00,,,0.00,,2013-03-20 09:43:00,
2013-03-20 04:52:00,5.0,-4.0,-100.00,NW,305,14.0,19.0,69,0.00,,,0.00,,2013-03-20 09:52:00,
2013-03-20 05:03:00,5.0,-2.0,-100.00,WNW,295,15.0,24.0,69,0.00,,,0.00,,2013-03-20 10:03:00,
2013-03-20 05:12:00,5.0,-2.0,-100.00,WNW,295,17.0,23.0,69,0.00,,,0.00,,2013-03-20 10:12:00,
2013-03-20 05:22:00,5.0,-2.0,-100.00,WNW,300,17.0,26.0,68,0.00,,,0.00,,2013-03-20 10:22:00,
2013-03-20 05:32:00,5.0,-2.0,-100.00,WNW,300,16.0,22.0,69,0.00,,,0.00,,2013-03-20 10:32:00,
2013-03-20 05:42:00,5.0,-2.0,-100.00,WNW,295,17.0,21.0,69,0.00,,,0.00,,2013-03-20 10:42:00,
2013-03-20 05:52:00,4.0,-4.0,-100.00,WNW,295,14.0,22.0,69,0.00,,,0.00,,2013-03-20 10:52:00,
2013-03-20 06:03:00,4.0,-4.0,-100.00,WNW,295,13.0,20.0,69,0.00,,,0.00,,2013-03-20 11:03:00,
2013-03-20 06:12:00,4.0,-4.0,-100.00,NW,305,14.0,21.0,68,0.00,,,0.00,,2013-03-20 11:12:00,
2013-03-20 06:22:00,4.0,-4.0,-100.00,NW,305,13.0,19.0,69,0.00,,,0.00,,2013-03-20 11:22:00,
2013-03-20 06:32:00,4.0,-4.0,-100.00,NW,305,14.0,19.0,69,0.00,,,0.00,,2013-03-20 11:32:00,
2013-03-20 06:42:00,4.0,-4.0,-100.00,WNW,300,15.0,21.0,68,0.00,,,0.00,,2013-03-20 11:42:00,
2013-03-20 06:52:00,4.0,-4.0,-100.00,NW,305,14.0,20.0,68,0.00,,,0.00,,2013-03-20 11:52:00,
2013-03-20 07:02:00,4.0,-4.0,-100.00,WNW,300,12.0,19.0,69,0.00,,,0.00,,2013-03-20 12:02:00,
2013-03-20 07:12:00,3.0,-4.0,-100.00,WNW,295,14.0,19.0,69,0.00,,,0.00,,2013-03-20 12:12:00,
2013-03-20 07:22:00,3.0,-4.0,-100.00,WNW,290,15.0,20.0,70,0.00,,,0.00,,2013-03-20 12:22:00,
2013-03-20 07:32:00,3.0,-4.0,-100.00,WNW,295,14.0,21.0,71,0.00,,,0.00,,2013-03-20 12:32:00,
2013-03-20 07:42:00,3.0,-4.0,-100.00,WNW,295,13.0,21.0,69,0.00,,,0.00,,2013-03-20 12:42:00,
2013-03-20 07:52:00,4.0,-4.0,-100.00,WNW,290,12.0,17.0,68,0.00,,,0.00,,2013-03-20 12:52:00,
2013-03-20 08:03:00,4.0,-4.0,-100.00,WNW,295,12.0,16.0,68,0.00,,,0.00,,2013-03-20 13:03:00,
2013-03-20 08:12:00,4.0,-4.0,-100.00,WNW,295,8.0,12.0,67,0.00,,,0.00,,2013-03-20 13:12:00,
2013-03-20 08:22:00,4.0,-4.0,-100.00,WNW,295,13.0,17.0,67,0.00,,,0.00,,2013-03-20 13:22:00,
2013-03-20 08:32:00,5.0,-4.0,-100.00,WNW,290,13.0,18.0,66,0.00,,,0.00,,2013-03-20 13:32:00,
2013-03-20 08:42:00,5.0,-4.0,-100.00,WNW,295,12.0,17.0,65,0.00,,,0.00,,2013-03-20 13:42:00,
2013-03-20 08:52:00,6.0,-4.0,-100.00,WNW,300,14.0,21.0,64,0.00,,,0.00,,2013-03-20 13:52:00,
2013-03-20 09:02:00,6.0,-4.0,-100.00,WNW,295,17.0,21.0,63,0.00,,,0.00,,2013-03-20 14:02:00,
2013-03-20 09:12:00,6.0,-4.0,-100.00,NW,305,17.0,22.0,63,0.00,,,0.00,,2013-03-20 14:12:00,
2013-03-20 09:22:00,6.0,-4.0,-100.00,WNW,300,14.0,22.0,62,0.00,,,0.00,,2013-03-20 14:22:00,
2013-03-20 09:33:00,7.0,-4.0,-100.00,NW,305,19.0,22.0,62,0.00,,,0.00,,2013-03-20 14:33:00,
2013-03-20 09:42:00,7.0,-4.0,-100.00,WNW,300,18.0,22.0,61,0.00,,,0.00,,2013-03-20 14:42:00,
2013-03-20 09:52:00,8.0,-2.0,-100.00,NW,305,18.0,24.0,60,0.00,,,0.00,,2013-03-20 14:52:00,
2013-03-20 10:02:00,8.0,-4.0,-100.00,NW,310,16.0,22.0,60,0.00,,,0.00,,2013-03-20 15:02:00,
2013-03-20 10:12:00,8.0,-4.0,-100.00,NW,305,19.0,22.0,58,0.00,,,0.00,,2013-03-20 15:12:00,
2013-03-20 10:22:00,9.0,-4.0,-100.00,WNW,300,17.0,22.0,57,0.00,,,0.00,,2013-03-20 15:22:00,
2013-03-20 10:33:00,9.0,-2.0,-100.00,NW,310,17.0,25.0,57,0.00,,,0.00,,2013-03-20 15:33:00,
2013-03-20 10:43:00,10.0,-2.0,-100.00,NW,310,19.0,26.0,59,0.00,,,0.00,,2013-03-20 15:43:00,
2013-03-20 10:52:00,10.0,-2.0,-100.00,NW,310,19.0,24.0,56,0.00,,,0.00,,2013-03-20 15:52:00,
2013-03-20 11:03:00,11.0,-2.0,-100.00,NW,305,19.0,27.0,57,0.00,,,0.00,,2013-03-20 16:03:00,
2013-03-20 11:12:00,11.0,-2.0,-100.00,NW,305,18.0,27.0,56,0.00,,,0.00,,2013-03-20 16:12:00,
2013-03-20 11:23:00,11.0,-2.0,-100.00,NW,305,17.0,23.0,56,0.00,,,0.00,,2013-03-20 16:23:00,
2013-03-20 11:32:00,12.0,0.0,-100.00,NW,305,16.0,26.0,57,0.00,,,0.00,,2013-03-20 16:32:00,
2013-03-20 11:42:00,13.0,0.0,-100.00,WNW,300,17.0,23.0,56,0.00,,,0.00,,2013-03-20 16:42:00,
2013-03-20 11:52:00,13.0,1.0,-100.00,NW,310,16.0,21.0,57,0.00,,,0.00,,2013-03-20 16:52:00,
2013-03-20 12:03:00,13.0,0.0,-100.00,NW,315,18.0,26.0,56,0.00,,,0.00,,2013-03-20 17:03:00,
2013-03-20 12:12:00,13.0,0.0,-100.00,NW,310,19.0,24.0,53,0.00,,,0.00,,2013-03-20 17:12:00,
2013-03-20 12:22:00,14.0,1.0,-100.00,WNW,290,17.0,22.0,56,0.00,,,0.00,,2013-03-20 17:22:00,
2013-03-20 12:32:00,15.0,1.0,-100.00,WNW,295,19.0,24.0,53,0.00,,,0.00,,2013-03-20 17:32:00,
2013-03-20 12:42:00,15.0,1.0,-100.00,WNW,295,19.0,22.0,55,0.00,,,0.00,,2013-03-20 17:42:00,
2013-03-20 12:52:00,14.0,0.0,-100.00,NW,310,17.0,24.0,53,0.00,,,0.00,,2013-03-20 17:52:00,
2013-03-20 13:02:00,15.0,1.0,-100.00,NW,305,14.0,22.0,54,0.00,,,0.00,,2013-03-20 18:02:00,
2013-03-20 13:12:00,16.0,1.0,-100.00,WNW,300,18.0,23.0,54,0.00,,,0.00,,2013-03-20 18:12:00,
2013-03-20 13:22:00,15.0,0.0,-100.00,NW,320,24.0,29.0,50,0.00,,,0.00,,2013-03-20 18:22:00,
2013-03-20 13:33:00,15.0,1.0,-100.00,NW,305,18.0,26.0,51,0.00,,,0.00,,2013-03-20 18:33:00,
2013-03-20 13:42:00,16.0,0.0,-100.00,NW,305,27.0,32.0,50,0.00,,,0.00,,2013-03-20 18:42:00,
2013-03-20 13:52:00,16.0,1.0,-100.00,NW,320,27.0,34.0,50,0.00,,,0.00,,2013-03-20 18:52:00,
2013-03-20 14:02:00,16.0,0.0,-100.00,NW,310,23.0,32.0,48,0.00,,,0.00,,2013-03-20 19:02:00,
2013-03-20 14:12:00,17.0,3.0,-100.00,WNW,300,19.0,28.0,54,0.00,,,0.00,,2013-03-20 19:12:00,
2013-03-20 14:22:00,17.0,3.0,-100.00,NW,310,22.0,28.0,56,0.00,,,0.00,,2013-03-20 19:22:00,
2013-03-20 14:32:00,17.0,3.0,-100.00,WNW,295,22.0,28.0,54,0.00,,,0.00,,2013-03-20 19:32:00,
2013-03-20 14:42:00,17.0,1.0,-100.00,NW,315,24.0,29.0,51,0.00,,,0.00,,2013-03-20 19:42:00,
2013-03-20 14:52:00,17.0,1.0,-100.00,NW,315,24.0,31.0,51,0.00,,,0.00,,2013-03-20 19:52:00,
2013-03-20 15:02:00,17.0,1.0,-100.00,NW,315,26.0,30.0,49,0.00,,,0.00,,2013-03-20 20:02:00,
2013-03-20 15:12:00,17.0,1.0,-100.00,WNW,300,26.0,34.0,49,0.00,,,0.00,,2013-03-20 20:12:00,
2013-03-20 15:22:00,17.0,1.0,-100.00,NW,315,26.0,30.0,49,0.00,,,0.00,,2013-03-20 20:22:00,
2013-03-20 15:32:00,18.0,3.0,-100.00,NW,310,22.0,30.0,51,0.00,,,0.00,,2013-03-20 20:32:00,
2013-03-20 15:42:00,17.0,5.0,-100.00,NW,315,18.0,30.0,55,0.00,,,0.00,,2013-03-20 20:42:00,
2013-03-20 15:52:00,17.0,5.0,-100.00,WNW,295,22.0,27.0,56,0.00,,,0.00,,2013-03-20 20:52:00,
2013-03-20 16:02:00,17.0,3.0,-100.00,NW,305,19.0,24.0,55,0.00,,,0.00,,2013-03-20 21:02:00,
2013-03-20 16:12:00,17.0,5.0,-100.00,WNW,300,22.0,27.0,57,0.00,,,0.00,,2013-03-20 21:12:00,
2013-03-20 16:22:00,17.0,5.0,-100.00,NW,315,21.0,25.0,57,0.00,,,0.00,,2013-03-20 21:22:00,
2013-03-20 16:33:00,17.0,5.0,-100.00,NW,305,21.0,26.0,57,0.00,,,0.00,,2013-03-20 21:33:00,
2013-03-20 16:42:00,17.0,5.0,-100.00,NW,310,17.0,23.0,57,0.00,,,0.00,,2013-03-20 21:42:00,
2013-03-20 16:52:00,17.0,5.0,-100.00,NW,305,20.0,25.0,57,0.00,,,0.00,,2013-03-20 21:52:00,
2013-03-20 17:03:00,17.0,3.0,-100.00,NW,325,17.0,25.0,54,0.00,,,0.00,,2013-03-20 22:03:00,
2013-03-20 17:12:00,17.0,5.0,-100.00,NW,305,22.0,25.0,57,0.00,,,0.00,,2013-03-20 22:12:00,
2013-03-20 17:23:00,17.0,5.0,-100.00,NW,305,21.0,26.0,56,0.00,,,0.00,,2013-03-20 22:23:00,
2013-03-20 17:32:00,17.0,3.0,-100.00,NW,305,19.0,23.0,55,0.00,,,0.00,,2013-03-20 22:32:00,
2013-03-20 17:42:00,17.0,5.0,-100.00,WNW,300,16.0,24.0,57,0.00,,,0.00,,2013-03-20 22:42:00,
2013-03-20 17:52:00,17.0,3.0,-100.00,NW,320,18.0,25.0,53,0.00,,,0.00,,2013-03-20 22:52:00,
2013-03-20 18:02:00,17.0,3.0,-100.00,NW,305,17.0,24.0,56,0.00,,,0.00,,2013-03-20 23:02:00,
2013-03-20 18:12:00,17.0,5.0,-100.00,WNW,300,17.0,21.0,58,0.00,,,0.00,,2013-03-20 23:12:00,
2013-03-20 18:22:00,16.0,5.0,-100.00,NW,305,16.0,21.0,59,0.00,,,0.00,,2013-03-20 23:22:00,
2013-03-20 18:32:00,16.0,5.0,-100.00,WNW,300,14.0,20.0,59,0.00,,,0.00,,2013-03-20 23:32:00,
2013-03-20 18:42:00,16.0,3.0,-100.00,NW,305,14.0,18.0,59,0.00,,,0.00,,2013-03-20 23:42:00,
2013-03-20 18:52:00,15.0,3.0,-100.00,NW,305,16.0,21.0,60,0.00,,,0.00,,2013-03-20 23:52:00,
2013-03-20 19:02:00,15.0,3.0,-100.00,WNW,300,19.0,23.0,59,0.00,,,0.00,,2013-03-21 00:02:00,
2013-03-20 19:12:00,14.0,3.0,-100.00,NW,310,16.0,23.0,62,0.00,,,0.00,,2013-03-21 00:12:00,
2013-03-20 19:22:00,14.0,3.0,-100.00,NW,320,14.0,20.0,62,0.00,,,0.00,,2013-03-21 00:22:00,
2013-03-20 19:32:00,14.0,3.0,-100.00,NW,315,12.0,16.0,64,0.00,,,0.00,,2013-03-21 00:32:00,
2013-03-20 19:42:00,13.0,3.0,-100.00,NW,305,12.0,17.0,64,0.00,,,0.00,,2013-03-21 00:42:00,
2013-03-20 19:52:00,13.0,3.0,-100.00,WNW,300,11.0,14.0,64,0.00,,,0.00,,2013-03-21 00:52:00,
2013-03-20 20:02:00,13.0,3.0,-100.00,NW,315,12.0,14.0,64,0.00,,,0.00,,2013-03-21 01:02:00,
2013-03-20 20:12:00,12.0,3.0,-100.00,NW,315,11.0,13.0,65,0.00,,,0.00,,2013-03-21 01:12:00,
2013-03-20 20:22:00,12.0,3.0,-100.00,NW,310,12.0,16.0,65,0.00,,,0.00,,2013-03-21 01:22:00,
2013-03-20 20:32:00,12.0,3.0,-100.00,NW,305,9.0,12.0,65,0.00,,,0.00,,2013-03-21 01:32:00,
2013-03-20 20:42:00,12.0,1.0,-100.00,NW,310,12.0,14.0,63,0.00,,,0.00,,2013-03-21 01:42:00,
2013-03-20 20:52:00,12.0,1.0,-100.00,NW,305,12.0,16.0,63,0.00,,,0.00,,2013-03-21 01:52:00,
2013-03-20 21:02:00,12.0,1.0,-100.00,WNW,300,12.0,15.0,63,0.00,,,0.00,,2013-03-21 02:02:00,
2013-03-20 21:12:00,12.0,1.0,-100.00,WNW,295,11.0,15.0,63,0.00,,,0.00,,2013-03-21 02:12:00,
2013-03-20 21:22:00,11.0,1.0,-100.00,NW,310,11.0,14.0,63,0.00,,,0.00,,2013-03-21 02:22:00,
2013-03-20 21:32:00,12.0,1.0,-100.00,NW,305,14.0,17.0,62,0.00,,,0.00,,2013-03-21 02:32:00,
2013-03-20 21:42:00,12.0,1.0,-100.00,NW,305,14.0,17.0,62,0.00,,,0.00,,2013-03-21 02:42:00,
2013-03-20 21:51:00,12.0,1.0,-100.00,NW,305,14.0,17.0,62,0.00,,,0.00,,2013-03-21 02:51:00,
2013-03-20 22:02:00,10.0,1.0,-100.00,WNW,300,11.0,16.0,66,0.00,,,0.00,,2013-03-21 03:02:00,
2013-03-20 22:12:00,10.0,1.0,-100.00,NW,310,12.0,14.0,67,0.00,,,0.00,,2013-03-21 03:12:00,
2013-03-20 22:22:00,10.0,1.0,-100.00,NW,305,12.0,16.0,67,0.00,,,0.00,,2013-03-21 03:22:00,
2013-03-20 22:32:00,10.0,1.0,-100.00,NW,310,12.0,16.0,68,0.00,,,0.00,,2013-03-21 03:32:00,
2013-03-20 22:43:00,9.0,1.0,-100.00,NW,310,12.0,16.0,68,0.00,,,0.00,,2013-03-21 03:43:00,
2013-03-20 22:53:00,9.0,1.0,-100.00,NW,310,12.0,16.0,67,0.00,,,0.00,,2013-03-21 03:53:00,
2013-03-20 23:03:00,9.0,1.0,-100.00,NW,310,14.0,17.0,67,0.00,,,0.00,,2013-03-21 04:03:00,
2013-03-20 23:13:00,9.0,1.0,-100.00,NW,310,13.0,17.0,67,0.00,,,0.00,,2013-03-21 04:13:00,
2013-03-20 23:23:00,9.0,1.0,-100.00,NW,320,13.0,16.0,67,0.00,,,0.00,,2013-03-21 04:23:00,
2013-03-20 23:33:00,9.0,1.0,-100.00,NW,320,12.0,15.0,68,0.00,,,0.00,,2013-03-21 04:33:00,
2013-03-20 23:43:00,8.0,0.0,-100.00,NW,320,11.0,13.0,69,0.00,,,0.00,,2013-03-21 04:43:00,
2013-03-20 23:52:00,8.0,0.0,-100.00,NW,320,11.0,12.0,69,0.00,,,0.00,,2013-03-21 04:52:00,